Home > Weather > Brumunddal > Past weeks

Flag for Norway Past Weather in Brumunddal, Norway — Yesterday and Last 2 Weeks

Now
64 °F

Mild.


Feels Like: 64 °F
Forecast: 54 / 64 °F
Wind: 1 mph from Northwest

Location: Lillehammer-Saetherengen

Current Time: Jun 26, 2016 at 7:19:25 PM

Latest Report: Jun 26, 2016 at 6:00 PM


Visibility: N/A

Pressure: 29.71 "Hg

Humidity: 92%

Dew Point: 61 °F

Location of BrumunddalLocation

Past Weather in Brumunddal — Graph

°F

Brumunddal Temperature Yesterday

Maximum temperature yesterday: 77 °F (at 5:00 PM)
Minimum temperature yesterday: 59 °F (at 3:00 AM)
Average temperature yesterday: 67 °F

High & Low Weather Summary for the Past Weeks

 TemperatureHumidityPressure
High77 °F (Jun 25, 5:00 PM)96% (Jun 16, 3:00 AM)30.12 "Hg (Jun 16, 3:00 AM)
Low42 °F (Jun 20, 5:00 AM)25% (Jun 14, 6:00 PM)29.55 "Hg (Jun 16, 8:00 PM)
Average59 °F66%29.81 "Hg
* Reported Jun 11 6:00 PM — Jun 26 6:00 PM, Brumunddal, Weather by CustomWeather, © 2016

Note: Actual official high and low records may vary slightly from our data, if they occured in-between our weather recording intervals... More about our weather records

Advertising

Brumunddal Weather History for the Previous 24 Hours

Scroll right to see more
 ConditionsComfort  
Time TempWeatherWind HumidityBarometerVisibility
6:00 PM
Sun, Jun 26
64 °FMild.1 mph92%29.71 "HgN/A
5:00 PM64 °FMild.2 mph92%29.73 "HgN/A
4:00 PM64 °FMild.1 mph92%29.75 "HgN/A
3:00 PM63 °FMild.1 mph92%29.77 "HgN/A
2:00 PM64 °FMild.1 mph92%29.80 "HgN/A
1:00 PM63 °FMild.1 mph88%29.80 "HgN/A
12:00 PM74 °FMild.2 mph50%29.77 "HgN/A
11:00 AM71 °FMild.2 mph63%29.80 "HgN/A
10:00 AM67 °FMild.2 mph66%29.83 "HgN/A
9:00 AM65 °FMild.2 mph67%29.86 "HgN/A
8:00 AM64 °FMild.2 mph72%29.87 "HgN/A
7:00 AM61 °FCool.2 mph77%29.89 "HgN/A
6:00 AM59 °FCool.2 mph80%29.90 "HgN/A
5:00 AM59 °FCool.1 mph78%29.91 "HgN/A
4:00 AM58 °FCool.1 mph81%29.92 "HgN/A
3:00 AM60 °FCool.2 mph75%29.91 "HgN/A
2:00 AM60 °FCool.1 mph72%29.92 "HgN/A
1:00 AM60 °FCool.No wind76%29.93 "HgN/A
12:00 AM62 °FCool.1 mph70%29.92 "HgN/A
11:00 PM
Sat, Jun 25
64 °FMild.1 mph62%29.93 "HgN/A
10:00 PM65 °FMild.No wind66%29.92 "HgN/A
9:00 PM72 °FMild.No wind47%29.90 "HgN/A
8:00 PM73 °FMild.2 mph51%29.89 "HgN/A
7:00 PM74 °FMild.2 mph44%29.89 "HgN/A
Weather by CustomWeather, © 2016

See weather overviewHow to use our weather pages